| time (UTC) | temp F | wind direction | speed MPH | gust MPH | rain 1hr in | rain 24hr in | rain mn in | humidity % | barometer mb |
| 20260506032006 | 72 | 215 | 5.0 | 13.0 | 0.00 | 0.00 | 0.00 | 57 | 1003.8 |
| 20260506031507 | 72 | 239 | 7.0 | 13.0 | 0.00 | 0.00 | 0.00 | 57 | 1003.7 |
| 20260506031006 | 72 | 189 | 6.0 | 11.0 | 0.00 | 0.00 | 0.00 | 57 | 1003.8 |
| 20260506030506 | 72 | 213 | 5.0 | 14.0 | 0.00 | 0.00 | 0.00 | 57 | 1003.8 |
| 20260506030006 | 72 | 155 | 5.0 | 14.0 | 0.00 | 0.00 | 0.00 | 57 | 1003.7 |
| 20260506025505 | 72 | 237 | 6.0 | 13.0 | 0.00 | 0.00 | 0.00 | 56 | 1003.8 |
| 20260506025005 | 72 | 176 | 6.0 | 13.0 | 0.00 | 0.00 | 0.00 | 56 | 1003.8 |
| 20260506024505 | 72 | 221 | 5.0 | 12.0 | 0.00 | 0.00 | 0.00 | 56 | 1003.7 |
| 20260506024005 | 72 | 210 | 6.0 | 11.0 | 0.00 | 0.00 | 0.00 | 56 | 1003.9 |
| 20260506023504 | 72 | 227 | 4.0 | 9.0 | 0.00 | 0.00 | 0.00 | 56 | 1004.0 |
| 20260506023005 | 72 | 192 | 5.0 | 12.0 | 0.00 | 0.00 | 0.00 | 55 | 1004.1 |
| 20260506022503 | 73 | 229 | 4.0 | 12.0 | 0.00 | 0.00 | 0.00 | 55 | 1004.1 |
| 20260506022003 | 73 | 207 | 4.0 | 12.0 | 0.00 | 0.00 | 0.00 | 54 | 1004.1 |
| 20260506021503 | 73 | 184 | 4.0 | 11.0 | 0.00 | 0.00 | 0.00 | 54 | 1004.1 |
| 20260506021006 | 73 | 206 | 6.0 | 11.0 | 0.00 | 0.00 | 0.00 | 54 | 1004.1 |
| 20260506020505 | 73 | 182 | 4.0 | 11.0 | 0.00 | 0.00 | 0.00 | 53 | 1004.1 |
| 20260506020002 | 73 | 155 | 5.0 | 11.0 | 0.00 | 0.00 | 0.00 | 53 | 1004.1 |
| 20260506015503 | 73 | 229 | 4.0 | 9.0 | 0.00 | 0.00 | 0.00 | 52 | 1004.0 |
| 20260506015003 | 73 | 171 | 3.0 | 11.0 | 0.00 | 0.00 | 0.00 | 52 | 1004.0 |
| 20260506014502 | 74 | 210 | 5.0 | 11.0 | 0.00 | 0.00 | 0.00 | 51 | 1003.8 |
| 20260506014002 | 74 | 234 | 3.0 | 11.0 | 0.00 | 0.00 | 0.00 | 51 | 1003.8 |
| 20260506013502 | 74 | 227 | 4.0 | 9.0 | 0.00 | 0.00 | 0.00 | 50 | 1003.8 |
| 20260506013002 | 74 | 170 | 3.0 | 9.0 | 0.00 | 0.00 | 0.00 | 50 | 1003.8 |
| 20260506012502 | 74 | 217 | 3.0 | 9.0 | 0.00 | 0.00 | 0.00 | 49 | 1003.8 |
| 20260506012001 | 74 | 176 | 4.0 | 9.0 | 0.00 | 0.00 | 0.00 | 49 | 1003.6 |
| 20260506011505 | 75 | 177 | 4.0 | 9.0 | 0.00 | 0.00 | 0.00 | 48 | 1003.6 |
| 20260506011003 | 75 | 200 | 4.0 | 9.0 | 0.00 | 0.00 | 0.00 | 48 | 1003.5 |
| 20260506010502 | 75 | 150 | 2.0 | 8.0 | 0.00 | 0.00 | 0.00 | 47 | 1003.5 |
| 20260506010120 | 75 | 217 | 3.0 | 11.0 | 0.00 | 0.00 | 0.00 | 47 | 1003.5 |
| 20260506005600 | 75 | 205 | 4.0 | 12.0 | 0.00 | 0.00 | 0.00 | 47 | 1003.4 |
| 20260506005103 | 75 | 229 | 6.0 | 12.0 | 0.00 | 0.00 | 0.00 | 46 | 1003.3 |
| 20260506004600 | 76 | 203 | 5.0 | 12.0 | 0.00 | 0.00 | 0.00 | 46 | 1003.2 |
| 20260506004059 | 76 | 235 | 4.0 | 12.0 | 0.00 | 0.00 | 0.00 | 45 | 1003.0 |
| 20260506003559 | 76 | 212 | 5.0 | 15.0 | 0.00 | 0.00 | 0.00 | 45 | 1003.1 |
| 20260506003100 | 76 | 189 | 6.0 | 15.0 | 0.00 | 0.00 | 0.00 | 45 | 1003.1 |
| 20260506002559 | 76 | 174 | 5.0 | 9.0 | 0.00 | 0.00 | 0.00 | 44 | 1003.1 |
| 20260506002059 | 76 | 219 | 3.0 | 7.0 | 0.00 | 0.00 | 0.00 | 44 | 1003.1 |
| 20260506001601 | 76 | 166 | 3.0 | 8.0 | 0.00 | 0.00 | 0.00 | 44 | 1002.9 |
| 20260506001059 | 77 | 233 | 3.0 | 10.0 | 0.00 | 0.00 | 0.00 | 43 | 1002.9 |
| 20260506000603 | 77 | 188 | 5.0 | 12.0 | 0.00 | 0.00 | 0.00 | 43 | 1002.8 |
| 20260505235601 | 77 | 252 | 5.0 | 9.0 | 0.00 | 0.00 | 0.00 | 42 | 1002.8 |
| 20260505235058 | 77 | 205 | 5.0 | 10.0 | 0.00 | 0.00 | 0.00 | 42 | 1002.9 |
| 20260505234557 | 78 | 128 | 4.0 | 11.0 | 0.00 | 0.00 | 0.00 | 41 | 1002.8 |
| 20260505234057 | 78 | 198 | 6.0 | 11.0 | 0.00 | 0.00 | 0.00 | 41 | 1002.8 |
| 20260505233559 | 78 | 221 | 6.0 | 9.0 | 0.00 | 0.00 | 0.00 | 40 | 1002.7 |
| 20260505233058 | 79 | 172 | 3.0 | 8.0 | 0.00 | 0.00 | 0.00 | 39 | 1002.7 |
| 20260505232557 | 79 | 236 | 3.0 | 11.0 | 0.00 | 0.00 | 0.00 | 39 | 1002.7 |
| 20260505232057 | 79 | 225 | 6.0 | 17.0 | 0.00 | 0.00 | 0.00 | 38 | 1002.7 |
| 20260505231557 | 80 | 145 | 8.0 | 17.0 | 0.00 | 0.00 | 0.00 | 37 | 1002.7 |
| 20260505231057 | 80 | 203 | 8.0 | 23.0 | 0.00 | 0.00 | 0.00 | 36 | 1002.7 |
| 20260505230555 | 80 | 214 | 10.0 | 23.0 | 0.00 | 0.00 | 0.00 | 36 | 1002.8 |
| 20260505230059 | 80 | 206 | 7.0 | 14.0 | 0.00 | 0.00 | 0.00 | 35 | 1002.7 |
| 20260505225555 | 80 | 243 | 5.0 | 22.0 | 0.00 | 0.00 | 0.00 | 35 | 1002.8 |
| 20260505225055 | 80 | 281 | 7.0 | 22.0 | 0.00 | 0.00 | 0.00 | 34 | 1002.8 |
| 20260505224555 | 81 | 219 | 11.0 | 22.0 | 0.00 | 0.00 | 0.00 | 33 | 1002.8 |
| 20260505224054 | 81 | 217 | 12.0 | 22.0 | 0.00 | 0.00 | 0.00 | 33 | 1002.8 |
| 20260505223555 | 82 | 240 | 10.0 | 19.0 | 0.00 | 0.00 | 0.00 | 34 | 1002.7 |
| 20260505223055 | 82 | 216 | 6.0 | 21.0 | 0.00 | 0.00 | 0.00 | 33 | 1002.7 |
| 20260505222553 | 82 | 234 | 7.0 | 18.0 | 0.00 | 0.00 | 0.00 | 33 | 1002.6 |
| 20260505222056 | 82 | 231 | 9.0 | 18.0 | 0.00 | 0.00 | 0.00 | 33 | 1002.4 |
| 20260505221603 | 82 | 249 | 5.0 | 15.0 | 0.00 | 0.00 | 0.00 | 34 | 1002.6 |
| 20260505221052 | 82 | 237 | 9.0 | 15.0 | 0.00 | 0.00 | 0.00 | 34 | 1002.5 |
| 20260505220553 | 82 | 227 | 6.0 | 14.0 | 0.00 | 0.00 | 0.00 | 34 | 1002.6 |
| 20260505220103 | 81 | 136 | 7.0 | 14.0 | 0.00 | 0.00 | 0.00 | 34 | 1002.5 |
| 20260505215551 | 81 | 205 | 7.0 | 14.0 | 0.00 | 0.00 | 0.00 | 34 | 1002.5 |
| 20260505215052 | 81 | 234 | 7.0 | 20.0 | 0.00 | 0.00 | 0.00 | 33 | 1002.6 |
| 20260505214553 | 82 | 223 | 9.0 | 20.0 | 0.00 | 0.00 | 0.00 | 33 | 1002.6 |
| 20260505214052 | 82 | 238 | 9.0 | 17.0 | 0.00 | 0.00 | 0.00 | 33 | 1002.5 |
| 20260505213550 | 82 | 230 | 7.0 | 20.0 | 0.00 | 0.00 | 0.00 | 33 | 1002.4 |
| 20260505213051 | 82 | 220 | 10.0 | 21.0 | 0.00 | 0.00 | 0.00 | 32 | 1002.4 |
| 20260505212551 | 83 | 222 | 12.0 | 26.0 | 0.00 | 0.00 | 0.00 | 30 | 1002.3 |
| 20260505212051 | 83 | 252 | 12.0 | 24.0 | 0.00 | 0.00 | 0.00 | 30 | 1002.3 |
| 20260505211550 | 84 | 251 | 10.0 | 26.0 | 0.00 | 0.00 | 0.00 | 30 | 1002.2 |
| 20260505211050 | 83 | 283 | 10.0 | 23.0 | 0.00 | 0.00 | 0.00 | 32 | 1002.2 |
| 20260505210550 | 83 | 237 | 11.0 | 23.0 | 0.00 | 0.00 | 0.00 | 31 | 1002.3 |
| 20260505210052 | 83 | 239 | 9.0 | 24.0 | 0.00 | 0.00 | 0.00 | 31 | 1002.4 |
| 20260505205549 | 83 | 230 | 10.0 | 18.0 | 0.00 | 0.00 | 0.00 | 31 | 1002.4 |
| 20260505205049 | 83 | 257 | 10.0 | 21.0 | 0.00 | 0.00 | 0.00 | 31 | 1002.3 |
| 20260505204557 | 83 | 263 | 10.0 | 21.0 | 0.00 | 0.00 | 0.00 | 30 | 1002.3 |
| 20260505204049 | 83 | 205 | 12.0 | 27.0 | 0.00 | 0.00 | 0.00 | 31 | 1002.3 |
| 20260505203552 | 83 | 233 | 14.0 | 27.0 | 0.00 | 0.00 | 0.00 | 30 | 1002.3 |
| 20260505203049 | 84 | 218 | 6.0 | 17.0 | 0.00 | 0.00 | 0.00 | 30 | 1002.3 |
| 20260505202548 | 83 | 239 | 9.0 | 22.0 | 0.00 | 0.00 | 0.00 | 31 | 1002.3 |
| 20260505202048 | 83 | 234 | 12.0 | 23.0 | 0.00 | 0.00 | 0.00 | 31 | 1002.4 |
| 20260505201550 | 83 | 236 | 15.0 | 24.0 | 0.00 | 0.00 | 0.00 | 30 | 1002.4 |
| 20260505201048 | 84 | 255 | 10.0 | 24.0 | 0.00 | 0.00 | 0.00 | 30 | 1002.5 |
| 20260505200546 | 83 | 246 | 7.0 | 24.0 | 0.00 | 0.00 | 0.00 | 33 | 1002.4 |
| 20260505200045 | 83 | 194 | 9.0 | 20.0 | 0.00 | 0.00 | 0.00 | 33 | 1002.7 |
| 20260505195545 | 83 | 202 | 10.0 | 22.0 | 0.00 | 0.00 | 0.00 | 33 | 1002.7 |
| 20260505195044 | 83 | 239 | 11.0 | 22.0 | 0.00 | 0.00 | 0.00 | 32 | 1002.7 |
| 20260505194555 | 83 | 225 | 12.0 | 22.0 | 0.00 | 0.00 | 0.00 | 32 | 1002.8 |
| 20260505194043 | 84 | 252 | 8.0 | 16.0 | 0.00 | 0.00 | 0.00 | 33 | 1002.8 |
| 20260505193543 | 84 | 190 | 8.0 | 19.0 | 0.00 | 0.00 | 0.00 | 34 | 1002.8 |
| 20260505193043 | 83 | 132 | 10.0 | 26.0 | 0.00 | 0.00 | 0.00 | 33 | 1002.9 |
| 20260505192539 | 83 | 262 | 8.0 | 21.0 | 0.00 | 0.00 | 0.00 | 33 | 1003.0 |
| 20260505192039 | 83 | 151 | 10.0 | 20.0 | 0.00 | 0.00 | 0.00 | 33 | 1003.1 |
| 20260505191538 | 83 | 249 | 9.0 | 21.0 | 0.00 | 0.00 | 0.00 | 34 | 1003.2 |
| 20260505191037 | 83 | 156 | 10.0 | 21.0 | 0.00 | 0.00 | 0.00 | 33 | 1003.4 |
| 20260505190538 | 83 | 243 | 8.0 | 22.0 | 0.00 | 0.00 | 0.00 | 32 | 1003.4 |
| 20260505190034 | 83 | 229 | 13.0 | 22.0 | 0.00 | 0.00 | 0.00 | 33 | 1003.5 |
| 20260505185534 | 83 | 215 | 11.0 | 20.0 | 0.00 | 0.00 | 0.00 | 34 | 1003.5 |
| 20260505185036 | 83 | 203 | 10.0 | 20.0 | 0.00 | 0.00 | 0.00 | 35 | 1003.7 |
| 20260505184533 | 83 | 216 | 9.0 | 18.0 | 0.00 | 0.00 | 0.00 | 35 | 1003.7 |
| 20260505184032 | 83 | 232 | 7.0 | 22.0 | 0.00 | 0.00 | 0.00 | 36 | 1003.7 |
| 20260505183531 | 83 | 270 | 9.0 | 22.0 | 0.00 | 0.00 | 0.00 | 36 | 1003.8 |
| 20260505183043 | 82 | 236 | 7.0 | 23.0 | 0.00 | 0.00 | 0.00 | 37 | 1003.8 |
| 20260505182531 | 82 | 246 | 13.0 | 24.0 | 0.00 | 0.00 | 0.00 | 36 | 1003.9 |
| 20260505182031 | 82 | 191 | 10.0 | 22.0 | 0.00 | 0.00 | 0.00 | 35 | 1003.9 |
| 20260505181531 | 82 | 212 | 8.0 | 18.0 | 0.00 | 0.00 | 0.00 | 37 | 1003.9 |
| 20260505181029 | 82 | 237 | 4.0 | 17.0 | 0.00 | 0.00 | 0.00 | 39 | 1004.1 |
| 20260505180529 | 82 | 238 | 8.0 | 17.0 | 0.00 | 0.00 | 0.00 | 39 | 1004.3 |
| 20260505180029 | 82 | 238 | 8.0 | 18.0 | 0.00 | 0.00 | 0.00 | 37 | 1004.3 |
| 20260505175528 | 82 | 158 | 6.0 | 18.0 | 0.00 | 0.00 | 0.00 | 39 | 1004.3 |
| 20260505175027 | 82 | 221 | 6.0 | 16.0 | 0.00 | 0.00 | 0.00 | 38 | 1004.3 |
| 20260505174526 | 81 | 221 | 5.0 | 17.0 | 0.00 | 0.00 | 0.00 | 39 | 1004.3 |
| 20260505174026 | 81 | 218 | 9.0 | 21.0 | 0.00 | 0.00 | 0.00 | 40 | 1004.3 |
| 20260505173524 | 80 | 215 | 9.0 | 21.0 | 0.00 | 0.00 | 0.00 | 39 | 1004.3 |
| 20260505173023 | 81 | 214 | 8.0 | 19.0 | 0.00 | 0.00 | 0.00 | 38 | 1004.3 |
| 20260505172523 | 81 | 226 | 8.0 | 20.0 | 0.00 | 0.00 | 0.00 | 38 | 1004.3 |
| 20260505172022 | 80 | 248 | 12.0 | 18.0 | 0.00 | 0.00 | 0.00 | 38 | 1004.3 |
| 20260505171522 | 80 | 236 | 6.0 | 23.0 | 0.00 | 0.00 | 0.00 | 38 | 1004.4 |
| 20260505171021 | 80 | 212 | 10.0 | 23.0 | 0.00 | 0.00 | 0.00 | 37 | 1004.4 |
| 20260505170520 | 80 | 268 | 9.0 | 20.0 | 0.00 | 0.00 | 0.00 | 39 | 1004.5 |
| 20260505170018 | 80 | 228 | 9.0 | 19.0 | 0.00 | 0.00 | 0.00 | 39 | 1004.6 |
| 20260505165517 | 80 | 235 | 10.0 | 17.0 | 0.00 | 0.00 | 0.00 | 40 | 1004.6 |
| 20260505165017 | 80 | 244 | 6.0 | 14.0 | 0.00 | 0.00 | 0.00 | 44 | 1004.7 |
| 20260505164516 | 80 | 223 | 5.0 | 18.0 | 0.00 | 0.00 | 0.00 | 43 | 1004.8 |
| 20260505164015 | 79 | 233 | 8.0 | 17.0 | 0.00 | 0.00 | 0.00 | 41 | 1004.8 |
| 20260505163515 | 80 | 240 | 7.0 | 14.0 | 0.00 | 0.00 | 0.00 | 42 | 1004.9 |
| 20260505163013 | 79 | 214 | 7.0 | 15.0 | 0.00 | 0.00 | 0.00 | 43 | 1005.2 |
| 20260505162514 | 79 | 193 | 7.0 | 14.0 | 0.00 | 0.00 | 0.00 | 46 | 1005.2 |
| 20260505162012 | 79 | 232 | 5.0 | 12.0 | 0.00 | 0.00 | 0.00 | 46 | 1005.2 |
| 20260505161512 | 78 | 191 | 4.0 | 15.0 | 0.00 | 0.00 | 0.00 | 46 | 1005.3 |
| 20260505161012 | 78 | 231 | 7.0 | 15.0 | 0.00 | 0.00 | 0.00 | 46 | 1005.4 |
| 20260505160511 | 78 | 206 | 6.0 | 14.0 | 0.00 | 0.00 | 0.00 | 46 | 1005.6 |
| 20260505153006 | 76 | 210 | 6.0 | 14.0 | 0.00 | 0.00 | 0.00 | 50 | 1005.7 |
| 20260505152504 | 76 | 183 | 6.0 | 14.0 | 0.00 | 0.00 | 0.00 | 48 | 1005.6 |
| 20260505152002 | 76 | 196 | 2.0 | 12.0 | 0.00 | 0.00 | 0.00 | 50 | 1005.8 |
| 20260505151601 | 75 | 232 | 6.0 | 12.0 | 0.00 | 0.00 | 0.00 | 49 | 1005.8 |
| 20260505151101 | 75 | 216 | 7.0 | 11.0 | 0.00 | 0.00 | 0.00 | 51 | 1005.9 |
| 20260505150558 | 75 | 246 | 6.0 | 12.0 | 0.00 | 0.00 | 0.00 | 52 | 1006.0 |
| 20260505140546 | 70 | 233 | 4.0 | 12.0 | 0.00 | 0.00 | 0.00 | 59 | 1005.8 |
| 20260505125030 | 65 | 227 | 6.0 | 12.0 | 0.00 | 0.00 | 0.00 | 63 | 1006.0 |
| 20260505124536 | 65 | 229 | 6.0 | 12.0 | 0.00 | 0.00 | 0.00 | 64 | 1006.0 |
| 20260505124027 | 65 | 228 | 6.0 | 10.0 | 0.00 | 0.00 | 0.00 | 63 | 1005.9 |
| 20260505123526 | 64 | 241 | 6.0 | 11.0 | 0.00 | 0.00 | 0.00 | 64 | 1005.9 |
| 20260505123025 | 64 | 231 | 5.0 | 11.0 | 0.00 | 0.00 | 0.00 | 65 | 1005.9 |
| 20260505122524 | 64 | 145 | 5.0 | 11.0 | 0.00 | 0.00 | 0.00 | 65 | 1005.8 |
| 20260505122027 | 63 | 220 | 6.0 | 11.0 | 0.00 | 0.00 | 0.00 | 65 | 1005.7 |
| 20260505121522 | 63 | 245 | 5.0 | 11.0 | 0.00 | 0.00 | 0.00 | 66 | 1005.8 |
| 20260505121022 | 63 | 210 | 4.0 | 11.0 | 0.00 | 0.00 | 0.00 | 66 | 1005.8 |
| 20260505120522 | 63 | 236 | 5.0 | 11.0 | 0.00 | 0.00 | 0.00 | 66 | 1005.8 |
| 20260505120023 | 63 | 216 | 5.0 | 11.0 | 0.00 | 0.00 | 0.00 | 66 | 1005.7 |
| 20260505115519 | 63 | 218 | 4.0 | 9.0 | 0.00 | 0.00 | 0.00 | 67 | 1005.8 |
| 20260505115017 | 62 | 234 | 4.0 | 9.0 | 0.00 | 0.00 | 0.00 | 67 | 1005.7 |
| 20260505114517 | 62 | 233 | 4.0 | 11.0 | 0.00 | 0.00 | 0.00 | 67 | 1005.6 |
| 20260505114016 | 62 | 236 | 6.0 | 11.0 | 0.00 | 0.00 | 0.00 | 67 | 1005.6 |
| 20260505113516 | 62 | 244 | 4.0 | 9.0 | 0.00 | 0.00 | 0.00 | 67 | 1005.6 |
| 20260505113016 | 61 | 231 | 4.0 | 9.0 | 0.00 | 0.00 | 0.00 | 68 | 1005.6 |
| 20260505112515 | 61 | 235 | 4.0 | 9.0 | 0.00 | 0.00 | 0.00 | 68 | 1005.6 |
| 20260505112014 | 61 | 224 | 5.0 | 9.0 | 0.00 | 0.00 | 0.00 | 68 | 1005.6 |
| 20260505111514 | 60 | 230 | 4.0 | 8.0 | 0.00 | 0.00 | 0.00 | 69 | 1005.5 |
| 20260505111017 | 60 | 240 | 4.0 | 8.0 | 0.00 | 0.00 | 0.00 | 69 | 1005.5 |
| 20260505110512 | 60 | 227 | 4.0 | 8.0 | 0.00 | 0.00 | 0.00 | 69 | 1005.4 |
| 20260505102008 | 59 | 207 | 3.0 | 6.0 | 0.00 | 0.00 | 0.00 | 69 | 1005.0 |
| 20260505101509 | 59 | 236 | 2.0 | 6.0 | 0.00 | 0.00 | 0.00 | 69 | 1005.0 |
| 20260505101009 | 59 | 214 | 2.0 | 4.0 | 0.00 | 0.00 | 0.00 | 69 | 1004.9 |
| 20260505100508 | 59 | 208 | 2.0 | 4.0 | 0.00 | 0.00 | 0.00 | 69 | 1005.0 |
| 20260505100009 | 59 | 201 | 1.0 | 4.0 | 0.00 | 0.00 | 0.00 | 68 | 1005.0 |
| 20260505095506 | 59 | 225 | 2.0 | 4.0 | 0.00 | 0.00 | 0.00 | 68 | 1004.9 |
| 20260505095006 | 59 | 212 | 1.0 | 4.0 | 0.00 | 0.00 | 0.00 | 68 | 1005.0 |
| 20260505094510 | 59 | 212 | 1.0 | 4.0 | 0.00 | 0.00 | 0.00 | 68 | 1005.0 |
| 20260505094006 | 59 | 214 | 1.0 | 4.0 | 0.00 | 0.00 | 0.00 | 67 | 1004.9 |
| 20260505093506 | 59 | 236 | 1.0 | 4.0 | 0.00 | 0.00 | 0.00 | 67 | 1004.9 |
| 20260505093005 | 59 | 188 | 1.0 | 4.0 | 0.00 | 0.00 | 0.00 | 67 | 1004.9 |
| 20260505092505 | 60 | 228 | 1.0 | 6.0 | 0.00 | 0.00 | 0.00 | 66 | 1005.1 |
| 20260505092005 | 60 | 212 | 2.0 | 6.0 | 0.00 | 0.00 | 0.00 | 66 | 1005.0 |
| 20260505091505 | 60 | 212 | 1.0 | 5.0 | 0.00 | 0.00 | 0.00 | 66 | 1005.0 |
| 20260505091004 | 60 | 205 | 2.0 | 5.0 | 0.00 | 0.00 | 0.00 | 66 | 1004.9 |
| 20260505090504 | 60 | 214 | 2.0 | 5.0 | 0.00 | 0.00 | 0.00 | 66 | 1004.9 |
| 20260505090003 | 59 | 245 | 1.0 | 4.0 | 0.00 | 0.00 | 0.00 | 66 | 1004.9 |
| 20260505085504 | 60 | 251 | 1.0 | 5.0 | 0.00 | 0.00 | 0.00 | 66 | 1004.9 |
| 20260505085003 | 60 | 233 | 1.0 | 5.0 | 0.00 | 0.00 | 0.00 | 66 | 1004.8 |
| 20260505084505 | 60 | 201 | 1.0 | 4.0 | 0.00 | 0.00 | 0.00 | 65 | 1004.8 |
| 20260505084000 | 60 | 229 | 1.0 | 4.0 | 0.00 | 0.00 | 0.00 | 65 | 1004.7 |
| 20260505083600 | 60 | 220 | 1.0 | 4.0 | 0.00 | 0.00 | 0.00 | 65 | 1004.7 |
| 20260505083105 | 60 | 216 | 2.0 | 4.0 | 0.00 | 0.00 | 0.00 | 65 | 1004.7 |
| 20260505082559 | 60 | 240 | 1.0 | 6.0 | 0.00 | 0.00 | 0.00 | 65 | 1004.6 |
| 20260505082059 | 60 | 218 | 1.0 | 6.0 | 0.00 | 0.00 | 0.00 | 65 | 1004.7 |
| 20260505081658 | 60 | 204 | 1.0 | 5.0 | 0.00 | 0.00 | 0.00 | 64 | 1004.7 |
| 20260505081057 | 60 | 204 | 2.0 | 5.0 | 0.00 | 0.00 | 0.00 | 64 | 1004.6 |
| 20260505080556 | 60 | 139 | 1.0 | 6.0 | 0.00 | 0.00 | 0.00 | 63 | 1004.5 |
| 20260505080111 | 61 | 224 | 2.0 | 6.0 | 0.00 | 0.00 | 0.00 | 63 | 1004.6 |
| 20260505075556 | 61 | 220 | 2.0 | 6.0 | 0.00 | 0.00 | 0.00 | 63 | 1004.6 |
| 20260505075057 | 61 | 208 | 2.0 | 6.0 | 0.00 | 0.00 | 0.00 | 63 | 1004.6 |
| 20260505074555 | 61 | 220 | 2.0 | 7.0 | 0.00 | 0.00 | 0.00 | 63 | 1004.6 |
| 20260505074055 | 61 | 190 | 1.0 | 7.0 | 0.00 | 0.00 | 0.00 | 63 | 1004.7 |
| 20260505073555 | 61 | 212 | 2.0 | 5.0 | 0.00 | 0.00 | 0.00 | 63 | 1004.6 |
| 20260505073100 | 61 | 195 | 1.0 | 3.0 | 0.00 | 0.00 | 0.00 | 63 | 1004.6 |
| 20260505072554 | 61 | 222 | 2.0 | 6.0 | 0.00 | 0.00 | 0.00 | 63 | 1004.6 |
| 20260505072053 | 61 | 217 | 2.0 | 6.0 | 0.00 | 0.00 | 0.00 | 64 | 1004.5 |
| 20260505071553 | 61 | 204 | 1.0 | 5.0 | 0.00 | 0.00 | 0.00 | 64 | 1004.5 |
| 20260505071053 | 60 | 212 | 1.0 | 5.0 | 0.00 | 0.00 | 0.00 | 64 | 1004.5 |
| 20260505070556 | 60 | 195 | 0.0 | 4.0 | 0.00 | 0.00 | 0.00 | 64 | 1004.4 |
| 20260505070052 | 60 | 195 | 0.0 | 5.0 | 0.00 | 0.00 | 0.00 | 64 | 1004.4 |
| 20260505065552 | 61 | 221 | 1.0 | 5.0 | 0.00 | 0.00 | 0.00 | 64 | 1004.4 |
| 20260505065050 | 61 | 205 | 1.0 | 4.0 | 0.00 | 0.00 | 0.00 | 64 | 1004.3 |
| 20260505064558 | 61 | 209 | 1.0 | 5.0 | 0.00 | 0.00 | 0.00 | 64 | 1004.1 |
| 20260505064051 | 60 | 246 | 1.0 | 5.0 | 0.00 | 0.00 | 0.00 | 64 | 1004.2 |
| 20260505063551 | 60 | 226 | 1.0 | 4.0 | 0.00 | 0.00 | 0.00 | 64 | 1004.2 |
| 20260505063054 | 60 | 209 | 0.0 | 3.0 | 0.00 | 0.00 | 0.00 | 64 | 1004.2 |
| 20260505062552 | 60 | 212 | 0.0 | 4.0 | 0.00 | 0.00 | 0.00 | 64 | 1004.2 |
| 20260505062049 | 60 | 221 | 1.0 | 4.0 | 0.00 | 0.00 | 0.00 | 64 | 1004.1 |
| 20260505061551 | 61 | 208 | 1.0 | 4.0 | 0.00 | 0.00 | 0.00 | 64 | 1004.2 |
| 20260505061050 | 61 | 196 | 1.0 | 5.0 | 0.00 | 0.00 | 0.00 | 64 | 1004.2 |
| 20260505060547 | 61 | 185 | 1.0 | 6.0 | 0.00 | 0.00 | 0.00 | 64 | 1004.2 |
| 20260505060047 | 61 | 214 | 2.0 | 6.0 | 0.00 | 0.00 | 0.00 | 64 | 1004.2 |
| 20260505055546 | 61 | 201 | 1.0 | 6.0 | 0.00 | 0.00 | 0.00 | 64 | 1004.1 |
| 20260505055048 | 61 | 214 | 0.0 | 5.0 | 0.00 | 0.00 | 0.00 | 63 | 1004.0 |
| 20260505054546 | 61 | 179 | 0.0 | 3.0 | 0.00 | 0.00 | 0.00 | 63 | 1004.0 |
| 20260505054043 | 61 | 165 | 0.0 | 4.0 | 0.00 | 0.00 | 0.00 | 63 | 1004.0 |
| 20260505053542 | 62 | 154 | 0.0 | 4.0 | 0.00 | 0.00 | 0.00 | 62 | 1003.9 |
| 20260505053106 | 62 | 212 | 1.0 | 6.0 | 0.00 | 0.00 | 0.00 | 62 | 1004.0 |
| 20260505052541 | 62 | 203 | 1.0 | 5.0 | 0.00 | 0.00 | 0.00 | 62 | 1003.9 |
| 20260505052042 | 62 | 218 | 1.0 | 4.0 | 0.00 | 0.00 | 0.00 | 62 | 1004.0 |
| 20260505051541 | 62 | 201 | 1.0 | 4.0 | 0.00 | 0.00 | 0.00 | 62 | 1003.9 |
| 20260505051042 | 62 | 181 | 1.0 | 4.0 | 0.00 | 0.00 | 0.00 | 62 | 1003.9 |
| 20260505050541 | 62 | 212 | 1.0 | 5.0 | 0.00 | 0.00 | 0.00 | 62 | 1003.9 |
| 20260505041541 | 62 | 160 | 0.0 | 3.0 | 0.00 | 0.00 | 0.00 | 61 | 1003.6 |
| 20260505041035 | 63 | 195 | 0.0 | 2.0 | 0.00 | 0.00 | 0.00 | 61 | 1003.6 |
| 20260505040532 | 63 | 191 | 0.0 | 2.0 | 0.00 | 0.00 | 0.00 | 61 | 1003.6 |
| 20260505040030 | 63 | 226 | 0.0 | 2.0 | 0.00 | 0.00 | 0.00 | 61 | 1003.6 |
| 20260505035531 | 63 | 184 | 0.0 | 3.0 | 0.00 | 0.00 | 0.00 | 61 | 1003.6 |
| 20260505035029 | 63 | 165 | 0.0 | 3.0 | 0.00 | 0.00 | 0.00 | 61 | 1003.7 |
| 20260505034532 | 63 | 203 | 0.0 | 3.0 | 0.00 | 0.00 | 0.00 | 61 | 1003.7 |
| 20260505034031 | 63 | 199 | 0.0 | 1.0 | 0.00 | 0.00 | 0.00 | 61 | 1003.6 |
| 20260505033532 | 63 | 207 | 0.0 | 1.0 | 0.00 | 0.00 | 0.00 | 61 | 1003.6 |
| 20260505033029 | 63 | 214 | 0.0 | 1.0 | 0.00 | 0.00 | 0.00 | 60 | 1003.7 |
| 20260505032529 | 63 | 181 | 0.0 | 3.0 | 0.00 | 0.00 | 0.00 | 60 | 1003.7 |